[[{"header":{"parameterUnit":"m.s-1","parameterCategory":1,"la1":30.2991,"la2":30.254,"lo1":-89.0895,"lo2":-89.0444,"dy":0.0017,"dx":0.0017,"nx":28,"ny":28,"refTime":"2024-08-23T03:00:00:Z","depth":0,"parameterNumber":2,"parameterNumberName":"U-component_of_WINDS"},"data":[0,0,0,0,0,0,0,0,0,0,0,0,0,0,0,0,0,0,0,0,0,0,0,0,0,0,0,0,0,0,0,0,0,0,0,0,0,0,0,0,0,0,0,0,0,0,0,0,0,0,0,0,0,0,0,0,0,0,-6.161,-6.161,0,-6.1634,-6.1634,-6.1635,-6.1473,-6.1468,-6.1464,-6.1459,-6.1485,-6.149,-6.1495,0,0,0,0,0,0,0,0,0,0,0,0,0,-6.1425,-6.1429,-6.161,-6.161,-6.1611,-6.1634,-6.1634,-6.1635,-6.1474,-6.1468,-6.1462,-6.1457,-6.1484,-6.149,-6.1496,0,0,0,0,0,0,0,0,0,0,0,0,0,-6.1483,-6.1431,-6.161,-6.1533,-6.1526,-6.1634,-6.1634,-6.1635,-6.1475,-6.1468,-6.1461,-6.1455,-6.1482,-6.1489,-6.1496,-6.1679,0,0,-6.1519,-6.1522,0,0,0,0,0,0,0,0,-6.148,-6.149,-6.1544,-6.1539,-6.1531,-6.1543,-6.1578,-6.165,-6.1476,-6.1495,-6.1459,-6.1451,-6.151,-6.1515,-6.1535,-6.1681,-6.1682,-6.152,-6.1524,-6.1528,-6.153,0,0,0,0,0,0,0,-6.1476,-6.1488,-6.1619,-6.1545,-6.1537,-6.1497,-6.1498,-6.1591,-6.1541,-6.1492,-6.1481,-6.1486,-6.1506,-6.1528,-6.1534,-6.1682,-6.152,-6.1526,-6.1531,-6.1534,-6.1975,-6.1982,0,0,0,0,0,0,-6.1482,-6.1486,-6.1619,-6.162,-6.1488,-6.1506,-6.1507,-6.1546,-6.1539,-6.1531,-6.1491,-6.1478,-6.1519,-6.1526,-6.1534,-6.1744,-6.1527,-6.1534,-6.1539,-6.1968,-6.1977,-6.1984,0,0,0,0,0,0,-6.1479,-6.1496,-6.1618,-6.155,-6.1562,-6.1517,-6.1562,-6.1551,-6.1572,-6.1538,-6.1529,-6.1523,-6.1513,-6.1524,-6.1643,-6.1743,-6.1538,-6.1545,-6.1959,-6.1971,-6.1981,-6.2168,0,0,0,0,0,0,-6.1474,-6.1495,-6.1565,-6.1553,-6.1567,-6.1727,-6.1569,-6.1556,-6.1585,-6.1568,-6.1566,-6.1559,-6.1509,-6.1633,-6.1651,-6.1749,-6.155,-6.195,-6.1964,-6.1977,-6.2152,-6.2184,-6.2211,0,0,0,0,0,-6.1468,-6.1618,-6.1569,-6.1586,-6.1652,-6.1733,-6.1741,-6.168,-6.1594,-6.1663,-6.1641,-6.1559,-6.173,-6.1647,-6.1665,-6.1768,-6.1943,-6.196,-6.1976,-6.2139,-6.2178,-6.221,0,0,0,0,0,0,-6.1644,-6.1615,-6.156,-6.171,-6.1725,-6.1706,-6.179,-6.1723,-6.1763,-6.1745,-6.1668,-6.1669,-6.1801,-6.1797,-6.1704,-6.1942,-6.1822,-6.1843,-6.194,-6.1976,-6.2004,-6.2,-6.1557,0,0,0,0,0,-6.17,-6.1768,-6.1739,-6.1874,-6.1885,-6.1837,-6.187,-6.1821,-6.1834,-6.184,-6.1826,-6.1842,-6.1898,-6.1937,-6.1988,-6.2152,-6.2147,-6.2232,-6.2261,-6.2285,-6.2302,-6.2385,-6.2421,-6.2038,-6.2038,-6.2038,0,0,-6.1817,-6.1809,-6.1857,-6.1909,-6.1915,-6.1986,-6.1843,-6.1926,-6.1977,-6.1852,-6.1962,-6.1954,-6.1966,-6.2108,-6.217,-6.2108,-6.2408,-6.2306,-6.2325,-6.2329,-6.2405,-6.2442,-6.2474,-6.2049,-6.2047,-6.2046,0,0,-6.2064,-6.2068,-6.2178,-6.2186,-6.2196,-6.2163,-6.219,-6.2181,-6.2169,-6.2279,-6.2185,-6.2247,-6.2347,-6.2358,-6.2377,-6.2628,-6.2553,-6.2647,-6.2797,-6.2879,-6.2909,-6.2935,-6.302,-6.3052,-6.2666,-6.2666,-6.2667,0,-6.2208,-6.2311,-6.2244,-6.2331,-6.2355,-6.2245,-6.2355,-6.2367,-6.2395,-6.2414,-6.2345,-6.2466,-6.2467,-6.2608,-6.2669,-6.2689,-6.2715,-6.2645,-6.291,-6.2936,-6.2959,-6.304,-6.3072,-6.2677,-6.2676,-6.2675,-6.2674,0,-6.2485,-6.2558,-6.2646,-6.2672,-6.2708,-6.2807,-6.2754,-6.2797,-6.2746,-6.2721,-6.2832,-6.283,-6.2876,-6.2907,-6.2859,-6.304,-6.3001,-6.2923,-6.2799,-6.3008,-6.3082,-6.3112,-6.2693,-6.2689,-6.2686,-6.2683,0,0,-6.2842,-6.2829,-6.2862,-6.2871,-6.2874,-6.2928,-6.3023,-6.3066,-6.3104,-6.3127,-6.3201,-6.3288,-6.3215,-6.3236,-6.3189,-6.3261,-6.3455,-6.3173,-6.3172,-6.3222,-6.365,-6.3705,-6.3742,-6.3407,-6.3412,-6.3417,-6.3647,0,-6.308,-6.3237,-6.3178,-6.3339,-6.3404,-6.33,-6.3381,-6.3392,-6.337,-6.3422,-6.3399,-6.346,-6.3361,-6.3372,-6.344,-6.3417,-6.3539,-6.34,-6.3473,-6.3476,-6.3468,-6.3781,-6.3841,-6.4058,-6.3676,-6.3681,-6.3685,0,-6.3378,-6.341,-6.3577,-6.3565,-6.359,-6.3664,-6.3698,-6.375,-6.3759,-6.3738,-6.3762,-6.3698,-6.3788,-6.3668,-6.3789,-6.3696,-6.3723,-6.3717,-6.3723,-6.3724,-6.359,-6.3787,-6.4127,-6.4158,-6.3731,-6.3727,-6.3724,0,-6.3615,-6.3701,-6.3811,-6.3823,-6.3813,-6.3867,-6.3866,-6.3868,-6.3897,-6.3928,-6.3946,-6.3988,-6.401,-6.4044,-6.3992,-6.391,-6.4119,-6.3996,-6.4102,-6.4104,-6.4147,-6.4144,-6.4492,-6.4173,-6.4173,-6.4172,-6.4172,0,-6.3884,-6.3989,-6.3917,-6.3984,-6.4098,-6.4031,-6.4146,-6.4133,-6.4136,-6.4198,-6.4113,-6.4173,-6.4104,-6.4158,-6.4119,-6.4222,-6.4235,-6.4219,-6.4206,-6.4223,-6.4225,-6.4236,-6.4218,-6.4181,-6.4179,-6.4177,-6.4176,0,-6.4167,-6.4123,-6.4235,-6.4217,-6.4214,-6.4299,-6.4283,-6.4344,-6.4317,-6.4396,-6.4411,-6.4369,-6.4427,-6.438,-6.4439,-6.4412,-6.4548,-6.4517,-6.4544,-6.4534,-6.4641,-6.4629,-6.5004,-6.5048,-6.4706,-6.4709,-6.4712,0,-6.4339,-6.4417,-6.4406,-6.4441,-6.4444,-6.4503,-6.4531,-6.4469,-6.4502,-6.4517,-6.4576,-6.4627,-6.4664,-6.4763,-6.4736,-6.478,-6.4746,-6.4874,-6.4751,-6.4765,-6.4742,-6.4735,-6.4741,-6.4897,-6.4902,-6.4905,-6.4908,0,-6.4647,-6.4621,-6.4665,-6.4702,-6.4739,-6.4765,-6.4785,-6.4819,-6.4754,-6.4796,-6.4854,-6.4883,-6.4941,-6.4991,-6.5026,-6.5024,-6.4955,-6.4947,-6.4973,-6.4989,-6.4999,-6.499,-6.4607,-6.4938,-6.4935,-6.4932,-6.4931,-6.493,-6.4876,-6.4938,-6.494,-6.4991,-6.4999,-6.5019,-6.5074,-6.5054,-6.5101,-6.5141,-6.5102,-6.5172,-6.5177,-6.5215,-6.5222,-6.5275,-6.5221,-6.5261,-6.5269,-6.5279,-6.5291,-6.4996,-6.5282,-6.5281,-6.528,-6.5279,-6.5279,0,-6.5175,-6.517,-6.5219,-6.5247,-6.5288,-6.522,-6.5238,-6.5276,-6.5337,-6.5348,-6.5386,-6.5451,-6.55,-6.5478,-6.552,-6.5567,-6.5536,-6.5579,-6.5573,-6.5572,-6.5339,-6.531,-6.5603,-6.5603,-6.5603,-6.5603,-6.5603,-6.5603,-6.5334,-6.5435,-6.541,-6.5514,-6.5509,-6.5575,-6.559,-6.5607,-6.5615,-6.5691,-6.5731,-6.5716,-6.5713,-6.5754,-6.5796,-6.5788,-6.5805,-6.586,-6.584,-6.5622,-6.559,-6.5559,-6.5531,-6.5865,-6.5866,-6.6068,-6.607,-6.6071]},{"header":{"parameterUnit":"m.s-1","parameterCategory":1,"la1":30.2991,"la2":30.254,"lo1":-89.0895,"lo2":-89.0444,"dy":0.0017,"dx":0.0017,"nx":28,"ny":28,"refTime":"2024-08-23T03:00:00:Z","depth":0,"parameterNumber":3,"parameterNumberName":"V-component_of_WINDS"},"data":[0,0,0,0,0,0,0,0,0,0,0,0,0,0,0,0,0,0,0,0,0,0,0,0,0,0,0,0,0,0,0,0,0,0,0,0,0,0,0,0,0,0,0,0,0,0,0,0,0,0,0,0,0,0,0,0,0,0,-0.5619,-0.562,0,-0.5747,-0.5749,-0.575,-0.5854,-0.5855,-0.5856,-0.5857,-0.5989,-0.5992,-0.5994,0,0,0,0,0,0,0,0,0,0,0,0,0,-0.5461,-0.5463,-0.5618,-0.562,-0.5622,-0.5747,-0.5749,-0.5751,-0.5854,-0.5855,-0.5856,-0.5857,-0.5988,-0.5991,-0.5994,0,0,0,0,0,0,0,0,0,0,0,0,0,-0.5553,-0.5464,-0.5618,-0.5688,-0.5696,-0.5747,-0.5749,-0.5751,-0.5853,-0.5855,-0.5857,-0.5858,-0.5987,-0.5991,-0.5995,-0.5987,0,0,-0.6006,-0.6008,0,0,0,0,0,0,0,0,-0.5548,-0.5559,-0.5676,-0.5683,-0.5692,-0.5786,-0.5742,-0.583,-0.5853,-0.5794,-0.5857,-0.5859,-0.592,-0.593,-0.5951,-0.5993,-0.5999,-0.6007,-0.6009,-0.6011,-0.6012,0,0,0,0,0,0,0,-0.5541,-0.5554,-0.567,-0.5678,-0.5687,-0.5713,-0.5728,-0.5759,-0.5847,-0.5799,-0.5807,-0.582,-0.5925,-0.5947,-0.5954,-0.6001,-0.6007,-0.601,-0.6012,-0.6014,-0.6042,-0.604,0,0,0,0,0,0,-0.5524,-0.5548,-0.5665,-0.5673,-0.5622,-0.5714,-0.5731,-0.5754,-0.5847,-0.5862,-0.5819,-0.5825,-0.5939,-0.595,-0.5959,-0.5955,-0.6011,-0.6014,-0.6016,-0.6043,-0.6041,-0.6039,0,0,0,0,0,0,-0.552,-0.5534,-0.566,-0.5613,-0.5631,-0.5715,-0.5741,-0.5756,-0.5778,-0.5862,-0.5878,-0.5825,-0.5941,-0.5954,-0.5979,-0.5961,-0.6016,-0.6019,-0.6045,-0.6042,-0.604,-0.5947,0,0,0,0,0,0,-0.5515,-0.5532,-0.553,-0.5612,-0.5633,-0.5678,-0.574,-0.5757,-0.5784,-0.5793,-0.5872,-0.5886,-0.5943,-0.5973,-0.5983,-0.5967,-0.6022,-0.6047,-0.6044,-0.6041,-0.5952,-0.5942,-0.5933,0,0,0,0,0,-0.5509,-0.5499,-0.5529,-0.5543,-0.5633,-0.5676,-0.5688,-0.5754,-0.5782,-0.5781,-0.5834,-0.5884,-0.5961,-0.5974,-0.5987,-0.5972,-0.6048,-0.6045,-0.6041,-0.5956,-0.5944,-0.5933,0,0,0,0,0,0,-0.5413,-0.5511,-0.5546,-0.5562,-0.561,-0.5694,-0.5694,-0.5739,-0.578,-0.5787,-0.5867,-0.5883,-0.5899,-0.5939,-0.5951,-0.5968,-0.6011,-0.601,-0.5942,-0.5931,-0.5922,-0.5912,-0.6026,0,0,0,0,0,-0.5393,-0.5421,-0.5505,-0.5511,-0.5533,-0.5609,-0.5631,-0.5677,-0.573,-0.5751,-0.5807,-0.5856,-0.5892,-0.5914,-0.5951,-0.5958,-0.5976,-0.5954,-0.5944,-0.5936,-0.5934,-0.5939,-0.593,-0.6028,-0.6028,-0.6028,0,0,-0.5354,-0.5411,-0.5423,-0.5493,-0.5536,-0.5562,-0.5626,-0.5651,-0.5671,-0.5755,-0.5782,-0.5824,-0.5885,-0.5899,-0.5909,-0.5933,-0.5911,-0.5932,-0.5925,-0.5927,-0.5934,-0.5925,-0.5917,-0.6026,-0.6026,-0.6026,0,0,-0.5294,-0.534,-0.535,-0.5391,-0.5455,-0.5505,-0.5506,-0.5584,-0.5615,-0.5642,-0.5705,-0.573,-0.579,-0.583,-0.5859,-0.5812,-0.5858,-0.5822,-0.5772,-0.5776,-0.5768,-0.5762,-0.5744,-0.5737,-0.582,-0.5819,-0.5819,0,-0.5237,-0.5279,-0.5349,-0.537,-0.5398,-0.5475,-0.5484,-0.5521,-0.5593,-0.561,-0.5636,-0.5711,-0.5758,-0.5783,-0.5771,-0.5792,-0.5796,-0.5813,-0.5764,-0.5758,-0.5753,-0.5737,-0.573,-0.5815,-0.5815,-0.5816,-0.5816,0,-0.5205,-0.5233,-0.5232,-0.53,-0.5328,-0.5343,-0.5414,-0.5434,-0.5477,-0.5525,-0.5551,-0.5609,-0.5659,-0.5668,-0.5711,-0.5699,-0.5711,-0.5749,-0.5793,-0.5737,-0.5724,-0.5718,-0.5807,-0.5809,-0.5811,-0.5812,0,0,-0.509,-0.5194,-0.5192,-0.5223,-0.5298,-0.5321,-0.5339,-0.5387,-0.5402,-0.5449,-0.5465,-0.5513,-0.5548,-0.558,-0.5628,-0.5631,-0.5589,-0.5669,-0.5671,-0.5651,-0.5577,-0.5547,-0.5539,-0.562,-0.5619,-0.5618,-0.5572,0,-0.5042,-0.5078,-0.514,-0.5156,-0.5182,-0.5254,-0.527,-0.5317,-0.5361,-0.5389,-0.5438,-0.547,-0.5514,-0.5534,-0.554,-0.5592,-0.5575,-0.5597,-0.5635,-0.5636,-0.5617,-0.5533,-0.5502,-0.5455,-0.5567,-0.5566,-0.5565,0,-0.4991,-0.5033,-0.5051,-0.5122,-0.5136,-0.5148,-0.5196,-0.5223,-0.5277,-0.5309,-0.5343,-0.5395,-0.5417,-0.5457,-0.5487,-0.5501,-0.552,-0.5548,-0.5548,-0.5553,-0.5597,-0.5535,-0.5442,-0.5434,-0.5558,-0.5558,-0.5559,0,-0.4904,-0.4965,-0.4983,-0.5007,-0.5091,-0.5098,-0.5133,-0.5189,-0.5214,-0.5256,-0.5272,-0.5316,-0.534,-0.5372,-0.5434,-0.5458,-0.5457,-0.5503,-0.5484,-0.5482,-0.5481,-0.548,-0.5388,-0.5493,-0.5494,-0.5494,-0.5494,0,-0.4844,-0.4852,-0.4945,-0.4956,-0.4967,-0.5038,-0.5046,-0.5088,-0.5137,-0.5157,-0.5222,-0.5239,-0.532,-0.5347,-0.5396,-0.5413,-0.5423,-0.5449,-0.5462,-0.5443,-0.5439,-0.5456,-0.5461,-0.5492,-0.5492,-0.5493,-0.5493,0,-0.4749,-0.4811,-0.4836,-0.4913,-0.4932,-0.4936,-0.5002,-0.5015,-0.5062,-0.5087,-0.5096,-0.517,-0.5205,-0.527,-0.5323,-0.5355,-0.5362,-0.5384,-0.5343,-0.5351,-0.5327,-0.5328,-0.5243,-0.5235,-0.5345,-0.5344,-0.5343,0,-0.4706,-0.4714,-0.4791,-0.4808,-0.4841,-0.4869,-0.4894,-0.4963,-0.4986,-0.5047,-0.5053,-0.5092,-0.5128,-0.5179,-0.5237,-0.5278,-0.5301,-0.5269,-0.5308,-0.5288,-0.53,-0.5298,-0.5299,-0.526,-0.5258,-0.5257,-0.5256,0,-0.4623,-0.4653,-0.4687,-0.4729,-0.4757,-0.4794,-0.4835,-0.4846,-0.4925,-0.4947,-0.4983,-0.501,-0.5063,-0.5101,-0.5149,-0.5186,-0.5233,-0.5243,-0.524,-0.5221,-0.5196,-0.5208,-0.5318,-0.5245,-0.5246,-0.5247,-0.5247,-0.5248,-0.4553,-0.4563,-0.4617,-0.4651,-0.4689,-0.4725,-0.4741,-0.4789,-0.482,-0.4868,-0.4907,-0.4939,-0.4992,-0.5062,-0.5095,-0.512,-0.5143,-0.514,-0.5139,-0.5137,-0.5129,-0.5192,-0.513,-0.513,-0.513,-0.5131,-0.5131,0,-0.4473,-0.4511,-0.4542,-0.4596,-0.4622,-0.4664,-0.4711,-0.473,-0.4757,-0.4802,-0.4835,-0.4875,-0.4911,-0.4972,-0.5013,-0.5022,-0.5044,-0.503,-0.503,-0.5037,-0.5106,-0.5104,-0.5011,-0.5011,-0.5011,-0.5011,-0.5011,-0.5011,-0.4435,-0.4452,-0.4488,-0.4524,-0.4563,-0.4594,-0.4617,-0.465,-0.4686,-0.4728,-0.4758,-0.4797,-0.4848,-0.4893,-0.4928,-0.4945,-0.4956,-0.4935,-0.4958,-0.5021,-0.5033,-0.5043,-0.5041,-0.4937,-0.4937,-0.4887,-0.4887,-0.4886]}]]